Temperature
10 10 10 10 10 11 11 11 11 11 11 11 11 11 11 11 11 11 11 11 11 11 11 11 11 11 11 11 11 11 11 11 11 11 11 11 11 10 10 10 10 10 10
9 10 10 10 10 10 10 10 10 10 10 11 11 11 11 11 11 11 11 11 11 11 11 11 10 10 10 10 11 11 11 11 11 11 11 11 11 10 10 10 10 9 9
9 9 9 9 9 9 9 10 10 10 10 10 10 10 10 10 10 10 10 10 10 10 10 10 10 10 10 10 10 10 10 10 10 10 10 10 10 10 10 10 9 9 9
9 9 9 9 9 9 9 9 9 9 9 9 9 10 10 10 10 10 10 10 10 10 10 10 10 10 10 9 9 10 10 10 10 10 10 10 10 10 10 10 9 9 9
8 8 8 8 8 8 8 8 8 8 9 9 9 9 9 9 9 9 9 9 9 9 9 9 9 9 9 9 9 9 9 9 10 10 10 10 10 10 10 9 9 9 9
8 8 8 8 8 7 8 8 8 8 8 8 8 8 9 9 9 9 9 9 9 9 9 9 9 9 9 9 9 9 9 9 9 9 9 9 9 9 9 9 9 9 8
7 7 7 7 7 7 7 7 7 7 8 8 8 8 8 8 8 8 8 8 8 8 8 8 8 8 8 8 8 9 8 9 8 8 9 9 8 9 9 8 8 8 8
7 6 6 6 6 6 6 6 7 7 7 7 7 7 7 7 8 8 7 7 7 7 8 8 7 8 8 8 8 8 8 8 8 8 8 8 8 8 8 8 8 8 8
6 6 6 6 6 6 6 6 6 6 6 6 6 6 6 6 6 7 7 7 7 7 7 7 7 7 7 7 7 7 7 8 8 7 7 7 7 7 7 7 7 7 7
5 6 6 6 6 5 5 5 6 6 6 6 6 5 5 5 5 5 6 6 6 6 6 6 6 7 7 7 7 7 7 7 7 7 7 7 7 7 7 7 7 7 7
5 5 5 5 5 5 5 5 5 5 5 5 5 5 5 5 5 5 5 5 6 6 6 6 6 6 6 6 6 6 7 7 6 6 6 6 6 7 6 7 7 7 7
5 5 5 5 5 5 5 5 5 5 5 5 5 5 5 5 5 5 5 5 5 5 5 5 5 6 6 6 6 6 6 6 6 6 6 6 6 6 6 6 6 6 6
5 5 4 4 4 4 4 4 4 4 4 4 5 5 4 4 5 5 5 4 4 4 5 5 5 5 5 5 5 5 5 6 6 6 6 6 6 6 6 6 6 6 6
4 4 4 4 4 4 4 4 4 4 4 4 4 4 4 4 4 4 4 4 4 4 4 4 4 5 5 5 5 5 5 5 5 5 5 5 5 5 5 5 5 5 5
4 4 4 4 3 4 4 4 4 4 4 4 4 4 4 4 4 4 4 4 4 3 3 4 4 4 4 4 4 4 4 4 4 5 5 5 5 5 5 5 5 5 5
3 3 3 3 3 3 3 4 4 3 4 4 4 4 4 4 4 4 4 4 4 4 3 3 3 3 3 3 3 4 4 4 4 4 4 4 4 4 4 4 4 4 4
3 3 3 3 3 3 3 3 3 3 3 3 3 3 3 3 3 3 3 3 3 3 3 3 3 3 3 3 3 3 3 3 4 4 4 4 4 4 4 4 4 4 4
3 3 3 3 3 3 3 3 3 3 3 3 3 3 3 3 3 3 3 3 3 3 3 2 2 2 2 2 2 3 3 3 3 3 3 4 3 3 3 3 3 3 3
2 2 2 2 2 2 2 2 2 2 2 2 2 2 2 2 2 3 3 3 3 2 2 2 2 2 2 2 2 2 2 3 3 3 3 3 3 3 3 3 3 3 3
2 2 2 2 2 2 2 2 2 2 2 2 2 2 2 2 2 2 2 2 2 2 2 1 1 1 1 1 1 1 2 2 2 2 2 2 2 2 3 2 2 2 2
2 2 2 1 1 1 1 1 1 1 2 2 1 1 2 1 1 1 2 2 2 1 1 1 1 1 1 1 1 1 1 1 1 2 2 2 2 2 2 2 2 2 2
1 1 1 1 1 1 1 1 1 1 1 1 1 1 1 1 1 1 1 1 1 1 1 1 0 0 0 0 0 0 0 0 0 1 1 1 1 1 1 1 1 1 2
1 1 1 1 1 1 1 0 1 1 1 0 0 0 0 0 0 1 1 1 1 1 1 1 0 0 0 0 0 0 -0 0 -0 0 0 1 1 1 1 1 1 1 1
1 1 0 0 0 0 0 -0 -0 0 0 0 -0 -0 -0 0 0 0 0 0 0 0 0 0 0 0 -0 -0 -0 -0 -0 -0 -0 -0 -0 -0 0 0 1 1 1 1 1
0 -0 -0 -0 -0 -0 -0 -0 -1 -0 -0 -0 -0 -0 -0 -0 -0 -0 -0 -0 -0 -0 -0 -0 -0 -0 -0 -0 -0 -1 -1 -1 -1 -1 -1 -1 -1 -0 -0 0 0 0 0
-1 -1 -1 -1 -1 -1 -1 -1 -1 -1 -1 -1 -1 -1 -1 -1 -1 -1 -1 -1 -1 -1 -1 -1 -1 -1 -1 -1 -1 -1 -1 -1 -1 -2 -1 -1 -1 -1 -1 -1 -1 -0 -0
Wind_Speed
1 2 2 2 2 2 2 2 2 2 2 3 3 2 2 3 2 2 2 3 3 4 4 4 4 4 4 4 4 4 5 3 3 3 3 4 4 4 5 5 5 6 6
1 1 1 2 2 2 2 1 2 2 2 2 2 3 3 3 3 2 2 2 3 4 5 5 5 5 5 4 4 4 4 4 4 4 4 4 4 5 5 5 6 6 6
1 1 1 2 2 2 2 1 1 1 2 2 2 3 3 3 3 2 2 1 2 3 4 4 6 5 5 5 5 5 5 5 4 5 5 5 5 5 5 5 6 6 7
1 1 1 2 2 1 1 1 1 1 2 2 2 3 3 3 3 3 2 2 1 2 2 2 4 4 5 6 6 6 6 6 5 5 6 5 5 5 5 5 5 6 7
2 0 1 2 2 1 1 1 1 1 2 2 3 3 2 2 3 2 2 2 2 2 1 2 3 4 5 6 7 7 7 7 6 6 6 6 6 6 6 5 5 6 6
2 1 1 2 1 0 1 1 1 2 2 2 3 3 3 3 2 2 2 1 2 2 2 2 2 3 4 6 8 8 7 8 6 7 6 6 7 6 6 6 6 6 6
2 1 1 1 1 1 1 1 1 2 2 1 1 2 3 2 2 2 1 1 1 2 2 1 1 2 3 5 7 8 8 8 7 7 7 7 7 7 7 7 6 6 6
2 2 1 1 1 1 1 1 1 1 1 1 0 1 2 2 2 2 1 1 1 1 1 1 1 2 3 4 6 7 9 7 7 8 8 8 8 8 7 8 7 7 7
2 2 2 2 1 2 2 2 2 2 2 2 0 1 1 2 2 2 2 2 1 1 1 1 2 2 3 4 5 6 8 7 8 8 8 8 8 8 8 8 8 8 8
3 3 3 2 2 2 3 3 2 2 2 2 2 2 2 2 2 2 2 1 1 2 2 2 2 2 3 3 4 5 6 7 8 8 8 8 8 9 8 8 8 8 8
3 3 3 2 2 2 3 3 2 2 2 3 3 2 2 2 2 2 4 3 2 2 2 2 2 1 3 3 3 4 6 7 8 8 8 8 8 9 9 9 8 8 8
2 3 3 3 3 3 3 3 3 3 3 3 3 3 2 2 2 2 3 4 4 3 3 2 1 1 2 2 3 5 6 7 8 8 7 8 8 9 9 9 9 8 8
3 4 3 3 3 3 4 3 3 3 4 4 4 3 3 3 3 2 2 3 4 4 3 2 1 1 2 3 3 5 5 7 7 7 7 8 9 9 10 9 9 8 8
4 4 3 3 4 4 4 3 3 4 3 4 4 4 3 3 3 3 3 2 3 3 2 2 1 0 2 3 4 6 5 7 7 7 7 7 8 9 9 8 8 8 7
3 3 3 3 4 4 3 3 3 4 4 4 4 4 4 3 3 3 3 3 3 2 3 2 1 1 3 3 5 5 5 6 7 7 7 7 8 8 8 7 8 7 6
4 3 3 3 3 3 3 3 4 4 4 4 4 4 4 3 3 3 2 2 2 3 2 2 2 2 2 4 5 5 5 7 6 6 6 7 8 8 7 7 7 7 6
3 4 4 3 3 3 3 3 4 4 4 4 4 4 4 4 3 3 2 2 2 2 2 2 1 1 2 2 4 4 5 4 4 5 6 7 7 7 7 7 7 7 5
4 4 3 3 3 3 3 4 4 4 5 5 4 4 4 3 3 3 2 2 2 2 2 2 2 2 2 2 3 4 4 4 4 6 6 7 7 7 8 7 7 7 6
3 3 3 3 4 4 4 4 4 4 4 4 3 3 3 3 3 2 2 2 2 1 1 1 2 2 2 2 3 4 4 3 5 6 6 7 7 7 7 8 8 8 6
3 3 3 3 4 4 4 4 3 3 3 2 2 2 2 2 3 3 2 2 2 1 1 1 1 1 1 2 2 3 4 3 3 5 6 7 8 7 7 8 9 9 7
3 3 3 3 3 3 3 3 3 2 2 1 1 1 1 2 2 1 1 2 2 2 2 1 1 1 1 2 3 3 3 3 4 3 4 5 5 4 5 8 8 9 9
2 2 3 3 3 3 4 3 2 2 2 2 1 0 0 1 2 2 2 1 1 2 2 2 1 1 2 2 2 2 3 3 3 3 4 4 3 3 4 5 8 9 10
1 2 2 2 2 3 3 2 1 2 2 2 1 1 0 1 1 1 1 2 2 1 0 2 2 2 2 2 2 2 3 3 3 4 4 3 2 3 4 6 9 9 10
0 1 1 1 1 2 2 1 1 2 2 2 2 2 1 1 1 0 1 1 1 1 1 0 1 2 2 2 1 1 1 2 3 3 3 2 2 3 5 6 8 9 10
1 0 0 0 0 2 2 1 1 2 2 1 1 1 1 2 1 1 2 2 1 2 3 3 2 2 2 2 2 2 1 2 3 3 2 2 2 3 4 4 6 10 11
0 0 0 0 0 1 2 1 1 2 2 1 0 0 0 1 0 1 2 2 1 1 2 3 3 4 3 3 4 2 1 1 2 2 3 3 3 3 3 3 4 7 8
Wind_Direction
3 345 343 339 336 338 336 338 336 326 325 317 313 306 291 283 267 247 254 264 259 262 270 275 268 262 265 280 298 299 292 277 270 286 286 279 284 286 291 296 290 281 275
342 314 324 328 316 310 303 300 303 299 299 311 308 304 289 277 266 252 248 254 255 254 263 274 280 274 267 276 300 310 314 297 288 282 291 281 279 283 288 293 292 289 285
275 281 268 305 301 305 309 323 319 317 305 308 302 302 291 278 266 255 247 243 254 259 262 280 285 291 290 287 292 297 314 306 304 296 285 285 277 274 285 291 292 291 286
280 312 265 286 302 321 334 303 288 296 303 304 301 294 288 283 272 249 233 232 238 255 278 305 314 309 311 303 297 300 298 309 296 299 293 290 290 279 276 284 291 296 293
270 310 288 298 311 331 310 298 313 271 286 304 298 290 283 276 275 256 228 222 230 240 268 296 302 303 308 311 303 301 295 299 294 291 296 292 289 290 278 279 287 293 296
271 270 296 316 319 285 307 301 295 299 269 277 297 302 289 278 273 250 233 224 222 242 260 276 292 305 310 309 309 303 296 296 294 295 296 299 290 291 287 281 283 288 293
268 255 271 301 306 265 261 263 270 297 303 305 320 320 314 297 279 266 247 227 242 255 252 259 282 296 305 308 313 310 307 299 293 297 295 298 293 289 295 283 285 288 291
246 250 234 247 241 255 280 290 279 263 295 328 307 331 310 315 326 302 264 224 252 273 271 285 276 274 291 303 309 310 310 304 301 296 294 294 294 289 298 286 282 287 291
237 231 230 228 228 233 237 244 240 228 255 290 251 194 236 261 295 285 257 239 232 247 265 291 275 273 281 296 297 306 311 306 300 298 292 291 297 293 295 294 282 284 289
244 233 225 220 226 229 239 244 240 238 225 248 276 256 230 239 254 286 283 258 258 261 264 283 281 274 280 287 291 299 308 310 302 298 294 290 295 299 295 305 291 291 292
257 248 235 223 229 234 235 235 241 244 232 232 241 253 266 274 248 243 273 294 308 282 273 261 243 266 282 288 288 300 313 314 308 301 299 296 296 303 297 304 296 291 293
268 257 247 235 235 235 236 236 233 236 242 238 241 239 240 246 250 245 259 277 289 292 295 266 232 246 293 314 309 328 323 319 314 307 304 303 303 306 299 303 302 290 292
269 261 257 245 246 243 237 228 230 237 238 238 238 240 245 250 255 249 241 269 285 292 289 270 243 267 344 347 326 328 323 325 317 313 314 313 310 310 306 300 310 296 295
251 253 243 245 252 253 249 232 229 235 236 237 245 243 248 255 253 246 237 241 283 286 279 281 293 279 354 338 326 328 325 321 323 323 324 323 319 317 312 302 312 305 302
255 253 243 244 247 248 243 235 233 235 235 239 242 244 246 255 254 250 240 213 218 243 264 272 297 298 340 337 325 330 322 319 326 327 332 333 330 325 317 311 314 311 305
255 259 251 248 249 252 251 240 242 238 234 245 244 240 245 251 256 249 239 233 216 197 238 259 283 305 331 334 331 332 321 327 325 329 338 343 339 333 327 321 316 315 306
247 254 250 248 248 255 257 248 247 240 236 247 247 240 243 236 243 251 243 234 222 185 224 281 292 313 310 323 336 336 333 332 330 338 343 346 346 347 343 329 321 324 313
247 249 244 248 249 253 256 252 253 250 240 242 242 237 237 230 233 243 231 224 217 196 191 245 286 307 307 314 331 335 343 351 351 348 349 351 354 354 351 342 333 331 319
247 247 239 244 251 255 258 254 250 246 237 235 229 233 233 215 226 235 223 214 213 194 172 199 275 297 308 341 350 343 341 354 358 358 3 0 355 352 355 351 347 344 329
240 236 239 245 252 256 258 255 249 240 235 223 225 228 239 231 224 222 219 206 193 170 159 171 269 300 320 350 357 347 343 349 345 355 4 356 349 352 359 355 354 350 338
244 233 235 249 256 256 255 243 236 228 212 202 221 224 264 280 275 262 243 210 191 181 174 177 228 312 332 350 343 334 333 338 338 358 348 342 342 347 356 351 351 352 353
240 227 235 240 253 265 279 270 246 192 174 172 187 212 281 291 295 312 305 296 228 182 183 192 234 247 281 305 322 322 328 340 335 347 343 327 337 333 341 347 351 355 356
240 229 228 231 254 266 281 285 277 170 163 171 179 199 268 312 322 277 342 24 12 9 232 190 201 234 255 262 276 306 321 333 315 315 329 312 327 331 332 340 347 352 354
260 238 242 229 244 271 285 260 232 144 156 173 185 196 202 244 256 217 107 76 30 5 347 211 198 238 248 255 257 281 294 336 325 323 330 315 325 325 327 334 344 352 352
344 316 280 235 249 294 313 237 158 153 143 155 189 198 201 225 261 94 113 105 59 22 13 12 18 17 13 27 43 62 34 18 343 327 338 337 325 328 321 322 343 351 352
301 332 25 253 238 289 327 329 168 162 150 147 137 211 235 178 51 97 123 129 108 47 38 35 36 35 37 36 31 40 43 15 343 318 333 344 329 340 332 324 335 345 350
Height
1502 1502 1501 1501 1502 1502 1501 1501 1501 1502 1501 1501 1502 1501 1501 1501 1501 1501 1501 1501 1501 1501 1501 1501 1501 1501 1502 1501 1501 1501 1501 1500 1500 1499 1499 1498 1497 1496 1496 1495 1494 1493 1492
1500 1499 1499 1499 1499 1499 1499 1499 1499 1499 1499 1499 1499 1498 1498 1499 1499 1498 1498 1498 1498 1498 1498 1498 1498 1498 1498 1498 1497 1498 1497 1497 1497 1496 1495 1495 1494 1493 1493 1492 1491 1490 1489
1497 1497 1496 1496 1496 1496 1496 1496 1496 1496 1496 1496 1496 1496 1496 1496 1495 1495 1495 1495 1495 1495 1495 1495 1495 1495 1494 1494 1494 1494 1494 1494 1493 1493 1492 1491 1491 1490 1489 1489 1488 1487 1486
1494 1493 1493 1493 1493 1493 1493 1493 1493 1493 1493 1493 1492 1492 1492 1492 1492 1492 1492 1492 1492 1492 1492 1492 1491 1491 1491 1491 1491 1490 1490 1490 1490 1489 1489 1488 1487 1487 1486 1485 1484 1483 1483
1491 1491 1490 1490 1490 1490 1490 1490 1490 1490 1490 1489 1489 1489 1489 1489 1488 1488 1488 1488 1488 1488 1488 1488 1488 1488 1488 1488 1487 1487 1486 1486 1486 1486 1485 1484 1484 1483 1483 1482 1481 1480 1479
1488 1488 1487 1486 1486 1486 1487 1487 1488 1487 1487 1487 1486 1486 1486 1485 1485 1485 1485 1485 1485 1485 1485 1485 1485 1484 1484 1484 1484 1483 1483 1482 1482 1482 1481 1481 1480 1480 1479 1479 1478 1477 1476
1485 1485 1484 1484 1483 1483 1484 1484 1484 1484 1484 1484 1483 1482 1482 1482 1481 1481 1481 1481 1481 1482 1481 1481 1481 1480 1480 1480 1479 1479 1479 1478 1478 1478 1477 1477 1477 1476 1476 1475 1474 1474 1473
1482 1481 1481 1481 1481 1481 1481 1481 1481 1481 1481 1482 1481 1480 1479 1479 1478 1478 1478 1478 1478 1478 1478 1477 1477 1477 1476 1476 1475 1475 1475 1474 1474 1474 1473 1473 1473 1472 1472 1471 1471 1470 1469
1478 1478 1478 1478 1477 1477 1478 1478 1478 1478 1478 1479 1479 1479 1478 1475 1474 1474 1474 1474 1475 1475 1474 1474 1473 1473 1473 1472 1471 1471 1471 1470 1470 1470 1469 1469 1468 1468 1468 1467 1467 1466 1466
1475 1475 1475 1474 1474 1474 1475 1475 1475 1475 1476 1475 1476 1476 1476 1475 1474 1471 1471 1471 1471 1471 1471 1470 1469 1469 1469 1468 1468 1467 1467 1466 1466 1466 1466 1465 1465 1464 1464 1463 1463 1462 1462
1472 1472 1471 1471 1471 1471 1471 1471 1472 1472 1472 1472 1473 1472 1472 1472 1471 1470 1467 1466 1467 1467 1467 1466 1466 1466 1465 1464 1464 1463 1463 1462 1462 1462 1461 1461 1460 1460 1459 1459 1458 1458 1457
1468 1468 1468 1468 1467 1467 1467 1468 1468 1469 1469 1469 1469 1469 1468 1468 1467 1467 1465 1463 1463 1462 1463 1463 1462 1462 1462 1461 1460 1459 1459 1459 1458 1458 1457 1457 1456 1455 1455 1454 1454 1453 1453
1464 1464 1464 1464 1464 1464 1464 1464 1465 1465 1465 1465 1465 1465 1465 1464 1464 1464 1463 1461 1460 1459 1459 1459 1459 1459 1458 1458 1457 1456 1455 1455 1454 1454 1453 1453 1452 1451 1451 1450 1449 1449 1448
1460 1461 1461 1461 1461 1460 1460 1461 1461 1461 1461 1461 1461 1461 1461 1461 1461 1460 1459 1458 1457 1456 1455 1455 1455 1455 1455 1454 1454 1453 1452 1451 1450 1449 1449 1449 1448 1447 1447 1446 1445 1444 1444
1457 1457 1457 1457 1457 1457 1457 1457 1457 1457 1457 1457 1457 1457 1456 1456 1456 1456 1456 1456 1456 1453 1452 1451 1452 1452 1452 1451 1450 1450 1448 1447 1446 1446 1445 1445 1445 1444 1442 1442 1441 1440 1440
1453 1453 1454 1453 1453 1453 1453 1453 1453 1453 1453 1453 1453 1452 1452 1452 1452 1452 1452 1452 1452 1451 1450 1449 1449 1449 1449 1448 1447 1446 1445 1444 1443 1442 1442 1441 1441 1439 1438 1438 1437 1436 1436
1450 1450 1450 1450 1449 1449 1449 1449 1449 1449 1449 1449 1448 1448 1447 1448 1448 1448 1448 1448 1449 1448 1447 1446 1447 1447 1446 1445 1443 1443 1442 1440 1439 1439 1439 1438 1437 1436 1435 1434 1434 1433 1432
1446 1446 1446 1446 1446 1446 1445 1445 1445 1445 1445 1444 1444 1444 1444 1444 1444 1445 1444 1445 1445 1445 1444 1443 1443 1443 1443 1442 1440 1439 1438 1437 1437 1436 1435 1435 1433 1433 1432 1431 1430 1429 1428
1442 1442 1442 1442 1442 1442 1442 1442 1441 1441 1441 1441 1440 1440 1440 1440 1441 1441 1441 1442 1442 1442 1442 1441 1440 1441 1440 1439 1438 1436 1435 1434 1434 1433 1432 1432 1431 1430 1429 1428 1427 1426 1425
1438 1438 1439 1439 1439 1439 1438 1438 1438 1437 1437 1437 1437 1437 1437 1437 1438 1438 1439 1439 1439 1439 1439 1439 1438 1438 1437 1436 1436 1434 1432 1431 1431 1430 1430 1430 1429 1427 1426 1424 1423 1423 1421
1435 1435 1435 1435 1435 1435 1435 1434 1434 1434 1434 1434 1434 1434 1434 1435 1436 1436 1436 1436 1436 1436 1436 1435 1435 1435 1434 1434 1433 1432 1430 1429 1428 1428 1427 1427 1426 1424 1422 1422 1420 1419 1418
1432 1432 1432 1432 1432 1432 1431 1431 1431 1431 1431 1431 1431 1431 1432 1433 1434 1434 1434 1434 1434 1434 1433 1433 1432 1432 1432 1432 1431 1430 1429 1427 1425 1426 1424 1423 1423 1421 1420 1419 1417 1416 1415
1428 1428 1428 1428 1428 1428 1428 1428 1429 1428 1428 1428 1428 1429 1429 1430 1431 1431 1431 1432 1432 1432 1432 1432 1431 1430 1430 1430 1430 1428 1427 1425 1424 1423 1422 1420 1420 1418 1417 1416 1415 1414 1412
1425 1425 1425 1425 1425 1425 1425 1426 1426 1426 1425 1426 1426 1427 1427 1427 1428 1428 1429 1429 1429 1429 1429 1429 1429 1429 1429 1428 1428 1428 1426 1424 1424 1423 1421 1418 1417 1416 1415 1414 1412 1411 1410
1422 1422 1422 1422 1422 1422 1422 1423 1423 1423 1423 1423 1424 1425 1425 1425 1426 1426 1426 1426 1426 1427 1427 1427 1427 1427 1427 1427 1426 1425 1424 1423 1421 1420 1419 1417 1415 1413 1412 1411 1410 1409 1407
1420 1420 1420 1420 1420 1420 1420 1420 1421 1420 1420 1421 1422 1423 1423 1423 1424 1424 1424 1424 1424 1424 1424 1424 1425 1425 1425 1425 1424 1424 1423 1422 1420 1419 1417 1416 1414 1412 1410 1409 1408 1407 1405